Weather History for El Centro, CA

Change the Weather History Date:

Saturday, November 23, 2013

  Actual Average Record
Temperature  
Mean Temperature 57 °F -  
Max Temperature 63 °F 71 °F 84 °F (2002)
Min Temperature 50 °F 48 °F 41 °F (1999)
Degree Days  
Heating Degree Days 8    
Growing Degree Days 7 (Base 50)    
Moisture  
Dew Point 48 °F    
Average Humidity 76    
Maximum Humidity 93    
Minimum Humidity 56    
Precipitation  
Precipitation 0.00 in - - ()
Sea Level Pressure  
Sea Level Pressure 30.08 in    
Wind  
Wind Speed 2 mph (WNW)    
Max Wind Speed 7 mph    
Max Gust Speed -    
Visibility 10 miles    
Events      
Averages and records for this station are not official NWS values.
T = Trace of Precipitation, MM = Missing Value Source: NWS Daily Summary

Daily Weather History Graph

Daily Weather History Graph

Search for Another Location

Airport:

Trip Planner

Search our weather history database for the weather conditions in past years. The results will help you decide how hot, cold, wet, or windy it might be!

Date:

Astronomy

Nov. 23, 2013 Rise Set
Actual Time 6:20 AM PST 4:37 PM PST
Civil Twilight 5:53 AM PST 5:04 PM PST
Nautical Twilight 5:23 AM PST 5:34 PM PST
Astronomical Twilight 4:54 AM PST 6:03 PM PST
Moon 10:02 PM PST (11/23) 10:45 AM PST (11/23)
Length of Visible Light 11h 10m
Length of Day
10h 17m
Waning Gibbous, 68% of the Moon is Illuminated
Nov 23
Waning Gibbous
Nov 25
Last Quarter
Dec 2
New
Dec 9
First Quarter
Dec 17
Full

Hourly Weather History & Observations

Time (PST) Temp. Dew Point Humidity Pressure Visibility Wind Dir Wind Speed Gust Speed Precip Events Conditions
12:56 AM 53.1 °F 48.9 °F 86% 30.02 in 10.0 mi WNW 3.5 mph - N/A   Overcast
1:56 AM 53.1 °F 48.9 °F 86% 30.04 in 10.0 mi Calm Calm - N/A   Overcast
2:56 AM 53.1 °F 48.9 °F 86% 30.04 in 10.0 mi NW 4.6 mph - N/A   Overcast
3:56 AM 53.1 °F 48.9 °F 86% 30.04 in 10.0 mi Calm Calm - N/A   Overcast
4:56 AM 52.0 °F 48.0 °F 86% 30.05 in 10.0 mi WNW 3.5 mph - N/A   Overcast
5:56 AM 52.0 °F 48.9 °F 89% 30.06 in 10.0 mi East 3.5 mph - N/A   Mostly Cloudy
6:56 AM 53.1 °F 48.9 °F 86% 30.08 in 10.0 mi NW 3.5 mph - N/A   Mostly Cloudy
7:56 AM 55.0 °F 48.0 °F 77% 30.09 in 10.0 mi Calm Calm - N/A   Mostly Cloudy
8:56 AM 55.9 °F 46.9 °F 72% 30.10 in 10.0 mi Calm Calm - N/A   Mostly Cloudy
9:56 AM 57.0 °F 46.0 °F 67% 30.12 in 10.0 mi Calm Calm - N/A   Mostly Cloudy
10:56 AM 59.0 °F 46.9 °F 64% 30.10 in 10.0 mi Calm Calm - N/A   Mostly Cloudy
11:56 AM 61.0 °F 46.9 °F 60% 30.08 in 10.0 mi Calm Calm - N/A   Mostly Cloudy
12:56 PM 62.1 °F 46.0 °F 56% 30.06 in 10.0 mi North 5.8 mph - N/A   Mostly Cloudy
1:56 PM 62.1 °F 46.9 °F 58% 30.05 in 10.0 mi ENE 3.5 mph - N/A   Scattered Clouds
2:56 PM 63.0 °F 46.9 °F 56% 30.06 in 10.0 mi NNE 3.5 mph - N/A   Scattered Clouds
3:56 PM 62.1 °F 46.9 °F 58% 30.07 in 10.0 mi Calm Calm - N/A   Partly Cloudy
4:56 PM 60.1 °F 48.0 °F 64% 30.07 in 10.0 mi Calm Calm - N/A   Clear
5:56 PM 57.9 °F 50.0 °F 75% 30.09 in 10.0 mi SW 3.5 mph - N/A   Clear
6:56 PM 55.9 °F 48.9 °F 77% 30.11 in 10.0 mi SE 3.5 mph - N/A   Scattered Clouds
7:56 PM 53.1 °F 48.9 °F 86% 30.12 in 10.0 mi ESE 6.9 mph - N/A   Partly Cloudy
8:56 PM 52.0 °F 48.9 °F 89% 30.13 in 10.0 mi West 3.5 mph - N/A   Clear
9:56 PM 52.0 °F 48.0 °F 86% 30.14 in 10.0 mi Calm Calm - N/A   Clear
10:56 PM 51.1 °F 48.0 °F 89% 30.14 in 10.0 mi SW 4.6 mph - N/A   Clear
11:56 PM 50.0 °F 48.0 °F 93% 30.14 in 10.0 mi South 3.5 mph - N/A   Clear